Weather History for KMWM - November, 2013

Change the Weather History Date:

Wednesday, November 6, 2013

  Actual Average Record
Temperature  
Mean Temperature 28 °F -  
Max Temperature 35 °F 45 °F 73 °F (2004)
Min Temperature 21 °F 27 °F 3 °F (1959)
Degree Days  
Heating Degree Days 37    
Moisture  
Dew Point 25 °F    
Average Humidity 83    
Maximum Humidity 100    
Minimum Humidity 56    
Precipitation  
Precipitation 0.06 in - - ()
Sea Level Pressure  
Sea Level Pressure 30.12 in    
Wind  
Wind Speed 13 mph (West)    
Max Wind Speed 24 mph    
Max Gust Speed 26 mph    
Visibility 10 miles    
Events Snow    
Averages and records for this station are not official NWS values.
T = Trace of Precipitation, MM = Missing Value Source: NWS Daily Summary

Daily Weather History Graph

Daily Weather History Graph

Search for Another Location

Airport or City:

Trip Planner

Search our weather history database for the weather conditions in past years. The results will help you decide how hot, cold, wet, or windy it might be!

Date:

Astronomy

Nov. 06, 2013 Rise Set
Actual Time 7:03 AM CST 5:03 PM CST
Civil Twilight 6:33 AM CST 5:34 PM CST
Nautical Twilight 5:58 AM CST 6:08 PM CST
Astronomical Twilight 5:25 AM CST 6:42 PM CST
Moon 10:22 AM CST (11/6) 8:06 PM CST (11/6)
Length of Visible Light 11h 01m
Length of Day
10h 00m
Waxing Crescent, 14% of the Moon is Illuminated
Nov 6
Waxing Crescent
Nov 9
First Quarter
Nov 17
Full
Nov 25
Last Quarter
Dec 2
New

Hourly Weather History & Observations

Time (CST) Temp. Windchill Dew Point Humidity Pressure Visibility Wind Dir Wind Speed Gust Speed Precip Events Conditions
12:13 AM 30.2 °F 16.5 °F 28.4 °F 93% 30.04 in 4.0 mi NNW 24.2 mph - N/A Snow Light Snow
12:32 AM 30.2 °F 17.8 °F 28.4 °F 93% 30.04 in 7.0 mi NNW 19.6 mph 26.5 mph N/A Snow Light Snow
12:52 AM 30.2 °F 17.1 °F 28.4 °F 93% 30.04 in 10.0 mi NNW 21.9 mph - N/A   Overcast
1:13 AM 30.2 °F 17.4 °F 28.4 °F 93% 30.05 in 10.0 mi NNW 20.7 mph 25.3 mph N/A   Overcast
1:32 AM 30.2 °F 17.8 °F 28.4 °F 93% 30.06 in 10.0 mi NNW 19.6 mph 24.2 mph N/A Snow Light Snow
1:52 AM 30.2 °F 18.5 °F 28.4 °F 93% 30.05 in 10.0 mi NNW 17.3 mph 23.0 mph N/A   Overcast
2:13 AM 30.2 °F 18.5 °F 28.4 °F 93% 30.06 in 10.0 mi NW 17.3 mph - N/A   Overcast
2:32 AM 30.2 °F 18.5 °F 28.4 °F 93% 30.05 in 10.0 mi NNW 17.3 mph - N/A Snow Light Snow
2:52 AM 28.4 °F 18.0 °F 28.4 °F 100% 30.07 in 10.0 mi NNW 12.7 mph - N/A Snow Light Snow
3:13 AM 28.4 °F 18.0 °F 26.6 °F 93% 30.07 in 10.0 mi NW 12.7 mph - N/A Snow Light Snow
3:32 AM 28.4 °F 17.5 °F 26.6 °F 93% 30.06 in 10.0 mi NW 13.8 mph - N/A   Overcast
3:52 AM 28.4 °F 18.0 °F 26.6 °F 93% 30.05 in 10.0 mi NW 12.7 mph - N/A   Overcast
4:13 AM 28.4 °F 19.1 °F 26.6 °F 93% 30.05 in 10.0 mi NW 10.4 mph - N/A   Overcast
4:32 AM 28.4 °F 19.1 °F 24.8 °F 86% 30.06 in 10.0 mi NW 10.4 mph - N/A   Mostly Cloudy
4:52 AM 28.4 °F 18.5 °F 24.8 °F 86% 30.06 in 10.0 mi NW 11.5 mph - N/A   Overcast
5:13 AM 28.4 °F 18.5 °F 24.8 °F 86% 30.07 in 10.0 mi NW 11.5 mph - N/A   Mostly Cloudy
5:32 AM 26.6 °F 19.1 °F 23.0 °F 86% 30.08 in 10.0 mi WNW 6.9 mph - N/A   Scattered Clouds
5:52 AM 26.6 °F 18.2 °F 21.2 °F 80% 30.08 in 10.0 mi WNW 8.1 mph - N/A   Clear
6:13 AM 23.0 °F 13.1 °F 21.2 °F 93% 30.08 in 10.0 mi WNW 9.2 mph - N/A   Clear
6:32 AM 21.2 °F 11.7 °F 19.4 °F 93% 30.08 in 10.0 mi WNW 8.1 mph - N/A   Clear
6:52 AM 23.0 °F 13.1 °F 21.2 °F 93% 30.08 in 10.0 mi WNW 9.2 mph - N/A   Clear
7:12 AM 23.0 °F 13.1 °F 19.4 °F 86% 30.09 in 10.0 mi WNW 9.2 mph - N/A   Clear
7:32 AM 23.0 °F 13.1 °F 19.4 °F 86% 30.09 in 10.0 mi WNW 9.2 mph - N/A   Clear
7:52 AM 24.8 °F 15.3 °F 19.4 °F 80% 30.10 in 10.0 mi WNW 9.2 mph - N/A   Clear
8:12 AM 24.8 °F 15.3 °F 19.4 °F 80% 30.10 in 10.0 mi WNW 9.2 mph - N/A   Clear
8:33 AM 24.8 °F 17.9 °F 19.4 °F 80% 30.11 in 10.0 mi West 5.8 mph - N/A   Clear
8:52 AM 26.6 °F 18.2 °F 21.2 °F 80% 30.12 in 10.0 mi WNW 8.1 mph - N/A   Clear
9:12 AM 26.6 °F 16.8 °F 21.2 °F 80% 30.12 in 10.0 mi WNW 10.4 mph - N/A   Clear
9:33 AM 28.4 °F 20.4 °F 21.2 °F 74% 30.14 in 10.0 mi West 8.1 mph - N/A   Clear
9:52 AM 28.4 °F 21.2 °F 23.0 °F 80% 30.14 in 10.0 mi West 6.9 mph - N/A   Clear
10:12 AM 30.2 °F 22.6 °F 23.0 °F 75% 30.14 in 10.0 mi West 8.1 mph - N/A   Clear
10:33 AM 30.2 °F 22.6 °F 23.0 °F 75% 30.14 in 10.0 mi West 8.1 mph - N/A   Clear
10:52 AM 32.0 °F 24.2 °F 23.0 °F 69% 30.15 in 10.0 mi West 9.2 mph - N/A   Clear
11:12 AM 32.0 °F 24.2 °F 24.8 °F 75% 30.15 in 10.0 mi West 9.2 mph - 0.01 in   Clear
11:33 AM 33.8 °F 27.0 °F 24.8 °F 70% 30.15 in 10.0 mi West 8.1 mph - 0.02 in   Clear
11:52 AM 35.6 °F 29.9 °F 23.0 °F 60% 30.15 in 10.0 mi West 6.9 mph - 0.04 in   Clear
12:12 PM 35.6 °F 30.7 °F 21.2 °F 56% 30.14 in 10.0 mi West 5.8 mph - 0.01 in   Clear
12:33 PM 33.8 °F 27.7 °F 24.8 °F 70% 30.15 in 10.0 mi WSW 6.9 mph - 0.02 in   Clear
12:52 PM 35.6 °F 29.9 °F 24.8 °F 65% 30.15 in 10.0 mi WSW 6.9 mph - 0.02 in   Clear
1:12 PM 35.6 °F 28.6 °F 24.8 °F 65% 30.14 in 10.0 mi WSW 9.2 mph - N/A   Clear
1:32 PM 35.6 °F 28.6 °F 24.8 °F 65% 30.15 in 10.0 mi WSW 9.2 mph - N/A   Clear
1:52 PM 35.6 °F 28.6 °F 24.8 °F 65% 30.15 in 10.0 mi WSW 9.2 mph - N/A   Clear
2:12 PM 35.6 °F 28.6 °F 24.8 °F 65% 30.14 in 10.0 mi WSW 9.2 mph - N/A   Clear
2:32 PM 35.6 °F 27.5 °F 26.6 °F 70% 30.14 in 10.0 mi WSW 11.5 mph - N/A   Clear
2:53 PM 35.6 °F 28.0 °F 26.6 °F 70% 30.14 in 10.0 mi WSW 10.4 mph - N/A   Clear
3:12 PM 35.6 °F 26.6 °F 24.8 °F 65% 30.14 in 10.0 mi WSW 13.8 mph - N/A   Clear
3:32 PM 35.6 °F 28.0 °F 26.6 °F 70% 30.14 in 10.0 mi WSW 10.4 mph - N/A   Clear
3:53 PM 33.8 °F 25.8 °F 26.6 °F 75% 30.15 in 10.0 mi SW 10.4 mph - N/A   Clear
4:12 PM 33.8 °F 26.4 °F 26.6 °F 75% 30.14 in 10.0 mi SW 9.2 mph - N/A   Clear
4:32 PM 33.8 °F 27.7 °F 24.8 °F 70% 30.15 in 10.0 mi SW 6.9 mph - N/A   Clear
4:52 PM 32.0 °F 25.6 °F 24.8 °F 75% 30.14 in 10.0 mi SW 6.9 mph - N/A   Clear
5:12 PM 30.2 °F 23.4 °F 24.8 °F 80% 30.15 in 10.0 mi SW 6.9 mph - N/A   Clear
5:32 PM 28.4 °F 20.4 °F 24.8 °F 86% 30.15 in 10.0 mi SW 8.1 mph - N/A   Clear
5:52 PM 28.4 °F 20.4 °F 24.8 °F 86% 30.16 in 10.0 mi SW 8.1 mph - N/A   Clear
6:13 PM 28.4 °F 22.2 °F 24.8 °F 86% 30.16 in 10.0 mi SSW 5.8 mph - N/A   Clear
6:32 PM 28.4 °F 22.2 °F 24.8 °F 86% 30.17 in 10.0 mi SSW 5.8 mph - N/A   Clear
6:52 PM 28.4 °F 21.2 °F 24.8 °F 86% 30.17 in 10.0 mi SSW 6.9 mph - N/A   Clear
7:12 PM 28.4 °F 20.4 °F 24.8 °F 86% 30.16 in 10.0 mi SSW 8.1 mph - N/A   Clear
7:32 PM 26.6 °F 17.5 °F 24.8 °F 93% 30.16 in 10.0 mi SW 9.2 mph - N/A   Clear
7:52 PM 26.6 °F 17.5 °F 24.8 °F 93% 30.16 in 10.0 mi SW 9.2 mph - N/A   Clear
8:12 PM 26.6 °F 16.8 °F 24.8 °F 93% 30.16 in 10.0 mi SSW 10.4 mph - N/A   Scattered Clouds
8:32 PM 26.6 °F 16.2 °F 26.6 °F 100% 30.16 in 10.0 mi SW 11.5 mph - N/A   Mostly Cloudy
8:52 PM 26.6 °F 16.8 °F 24.8 °F 93% 30.16 in 10.0 mi SW 10.4 mph - N/A   Overcast
9:12 PM 26.6 °F 14.7 °F 26.6 °F 100% 30.16 in 10.0 mi SW 15.0 mph - N/A   Overcast
9:32 PM 28.4 °F 20.4 °F 26.6 °F 93% 30.18 in 10.0 mi SW 8.1 mph - N/A   Overcast
9:52 PM 28.4 °F 23.3 °F 26.6 °F 93% 30.19 in 10.0 mi West 4.6 mph - N/A   Overcast
10:13 PM 28.4 °F 24.6 °F 26.6 °F 93% 30.19 in 7.0 mi WNW 3.5 mph - N/A   Overcast
10:32 PM 28.4 °F 19.7 °F 26.6 °F 93% 30.18 in 10.0 mi WSW 9.2 mph - N/A   Overcast
10:52 PM 30.2 °F 20.2 °F 28.4 °F 93% 30.18 in 10.0 mi West 12.7 mph - N/A   Overcast
11:12 PM 30.2 °F 20.8 °F 28.4 °F 93% 30.18 in 10.0 mi West 11.5 mph - N/A   Overcast
11:32 PM 30.2 °F 20.2 °F 28.4 °F 93% 30.17 in 10.0 mi West 12.7 mph - N/A   Overcast
11:52 PM 30.2 °F 20.8 °F 28.4 °F 93% 30.17 in 10.0 mi West 11.5 mph 18.4 mph N/A   Overcast